User: anonymous   Login
Location: Unspecified
(0.0000°N, 0.0000°E)
Time: 18:57:36
(UTC+00:00)
Language:

TATIANA - Orbit

View from above orbital plane
View from above orbital plane
View from above satellite
View from above satellite

Ground track
Ground track

The orbit data is extracted from the following two-line orbital elements,

1 28523U 05002C   17083.26560116 +.00000057 +00000-0 +35463-4 0  9990
2 28523 082.9469 074.7605 0036877 228.0801 131.7216 13.87423513616316
Epoch (UTC): 24 March 2017 06:22:27
Eccentricity: 0.0036877
inclination: 82.9469°
perigee height: 910 km
apogee height: 964 km
right ascension of ascending node: 74.7605°
argument of perigee: 228.0801°
revolutions per day: 13.87423513
mean anomaly at epoch: 131.7216°
orbit number at epoch: 61631

The dashed part of the orbit path shows where the satellite is in the earth's shadow,  

DLR